Regional Weather Roundup
Issued by NWS Grand Forks, ND

Home | Current Version | Previous Version | Text Only | Print | Product List | Glossary On
Versions: 1 2 3 4 5 6 7 8 9 10 11 12 13 14 15 16 17 18 19 20 21 22 23 24 25 26 27 28 29 30 31 32 33 34 35 36 37 38 39 40 41 42 43 44 45 46 47 48 49 50
000
ASUS43 KFGF 140631
RWRFGF
PRAIRIE TO PINES  WEATHER ROUNDUP
NATIONAL WEATHER SERVICE EASTERN NORTH DAKOTA/GRAND FORKS ND
100 AM CDT WED APR 14 2021

 **SATELLITE DATA USED TO AUGMENT SKY COVER AT AUTOMATED STATIONS**
 *****  WEATHER ACROSS EASTERN NORTH DAKOTA  *****

CITY           SKY/WX    TMP DP  RH WIND       PRES   REMARKS
GRAND FORKS    CLOUDY    29  26  89 N22       30.16R WCI  15
6HR MIN TEMP:  28; 6HR MAX TEMP:  29; 6HR PCP:  0.01;

GRAND FRKS AFB MIX PCPN  29  29 100 N18       30.17R WCI  16
DEVILS LAKE    FLURRIES  24  20  84 N23       30.23R WCI   9
6HR MIN TEMP:  24; 6HR MAX TEMP:  25; 6HR PCP: TRACE;

FARGO          CLOUDY    28  26  92 NW14      30.15S WCI  17
WAHPETON ARPT    N/A    N/A N/A N/A MISG        N/A
$$

 ***** WEATHER ACROSS CENTRAL AND WESTERN NORTH DAKOTA  *****

CITY           SKY/WX    TMP DP  RH WIND       PRES   REMARKS
BISMARCK       CLOUDY    26  20  77 NW12      30.30R WCI  16
6HR MIN TEMP:  26; 6HR MAX TEMP:  29;

MINOT          LGT SNOW  22  19  89 NW16      30.30S FOG     WCI   8
6HR MIN TEMP:  22; 6HR MAX TEMP:  25; 6HR PCP: TRACE;

JAMESTOWN      LGT SNOW  25  21  85 NW21G28   30.20R FOG     WCI  11
6HR MIN TEMP:  25; 6HR MAX TEMP:  27; 6HR PCP: TRACE;

MINOT AFB      LGT SNOW  21  19  92 N13       30.30S WCI   9
GARRISON         N/A     22  19  89 MISG      30.29S
WILLISTON      NOT AVBL
DICKINSON      CLOUDY    24  18  77 NW15G24   30.27R WCI  11
6HR MIN TEMP:  23; 6HR MAX TEMP:  27; 6HR PCP: TRACE;

HETTINGER      CLOUDY    25  19  78 NW15      30.28S WCI  13
6HR MIN TEMP:  24; 6HR MAX TEMP:  30; 6HR PCP: TRACE;

$$

 *****  OTHER AIRPORT OBSERVATIONS IN OUR AREA  *****

CITY           SKY/WX    TMP DP  RH WIND       PRES   REMARKS
WALHALLA       CLOUDY    27  27 100 N14G22    30.24R WCI  15
GRAFTON AIRPOR NOT AVBL
VALLEY CITY AR CLOUDY    25  25 100 NW17      30.19S WCI  11
CANDO          CLOUDY    23  23 100 N17G24    30.27  WCI   9
CAVALIER APRT  MIX PCPN  27  27 100 N21G26    30.21R WCI  13
GWINNER        CLOUDY    27  27 100 NW18      30.18F WCI  13
SHEYENNE NWR     N/A     27  26  95 NW9       29.95S WCI  18
ROLLA          CLOUDY    21  21 100 N18       30.27R WCI   6
 ***** THE ABOVE OBSERVATIONS ARE NON NWS ARE NOT QUALITY
       CONTROLLED AND MAY MIS-REPORT RAIN FOR SNOW...
$$

  *****  WEATHER ACROSS NORTHERN MINNESOTA  *****

CITY           SKY/WX    TMP DP  RH WIND       PRES   REMARKS
FLAG ISLAND    CLOUDY    36  30  80 N20       30.11R
WARROAD        LGT SNOW  34  30  86 N10       30.12R
ROSEAU         LGT SNOW  34 N/A N/A N10       30.12R
HALLOCK        CLOUDY    30  28  93 N14       30.17R WCI  20
THF RVR FALLS  FLURRIES  31  30  96 N14       30.11R WCI  21
6HR MIN TEMP:  30; 6HR MAX TEMP:  32; 6HR PCP: TRACE;

BAUDETTE       NOT AVBL
WASKISH        RAIN      36  34  93 N5        30.04R
CROOKSTON      FLURRIES  28  28 100 N17       30.14R WCI  16
STEPHEN NDAWN    N/A     30  30 100 MISG        N/A
GREENBUSH NDAW   N/A     30  28  93 MISG        N/A
$$
  *****  WEATHER ACROSS CENTRAL AND WEST MINNESOTA  *****

CITY           SKY/WX    TMP DP  RH WIND       PRES   REMARKS
FOSSTON        MIX PCPN  28  28 100 NW10      30.08S WCI  19
BEMIDJI        CLOUDY    32  32 100 NW9       30.03R WCI  24
6HR MIN TEMP:  32; 6HR MAX TEMP:  33;

PARK RAPIDS    LGT SNOW  31  28  89 NW10      30.02R FOG     WCI  22
6HR MIN TEMP:  30; 6HR MAX TEMP:  31; 6HR PCP: TRACE;

ELBOW LAKE     CLOUDY    27  27  99 NW18G25   30.13S WCI  14
6HR MIN TEMP:  27; 6HR MAX TEMP:  29;

WADENA         FLURRIES  28  27  93 W8G17     30.05S WCI  20
DETROIT LAKES  CLOUDY    28  27  93 NW14      30.09R FOG     WCI  17
MOORHEAD       LGT RAIN  30  25  80 NW12      30.15S WCI  21
FERGUS FALLS   CLOUDY    27  25  93 NW20      30.09S FOG     WCI  13
MORRIS MN      FAIR      28  25  86 NW20G26   30.12S WCI  15
STAPLES        LGT SNOW  30  28  93 W12       30.04R WCI  21
$$
  *****  WEATHER ELSEWHERE ACROSS MINNESOTA  *****

CITY           SKY/WX    TMP DP  RH WIND       PRES   REMARKS
DULUTH         CLOUDY    32  27  81 W5        30.00S
6HR MIN TEMP:  32; 6HR MAX TEMP:  33; 6HR PCP: TRACE;

INTRNTL FALLS  LGT RAIN  38  37  97 N10       30.02R FOG
6HR MIN TEMP:  38; 6HR MAX TEMP:  41; 6HR PCP:  0.10;

ELY            FLURRIES  30  30 100 CALM      30.01R
CLOQUET        CLOUDY    30  28  93 CALM      30.00S
WHEATON        NOT AVBL
BRAINERD       LGT SNOW  31  29  92 W8        30.02S FOG     WCI  23
6HR MIN TEMP:  31; 6HR MAX TEMP:  33; 6HR PCP:  0.02;

HIBBING        CLOUDY    29  28  96 CALM      30.00S
6HR MIN TEMP:  29; 6HR MAX TEMP:  32; 6HR PCP: TRACE;

ALEXANDRIA     NOT AVBL
SAINT CLOUD    LGT SNOW  30  27  88 W10       30.06R FOG     WCI  21
6HR MIN TEMP:  29; 6HR MAX TEMP:  30; 6HR PCP:  0.03;

MINNEAPOLIS    FLURRIES  31  27  85 W9        30.09F WCI  23
6HR MIN TEMP:  31; 6HR MAX TEMP:  33; 6HR PCP:  0.03;

$$

  *****  WEATHER ACROSS SOUTH DAKOTA  *****

CITY           SKY/WX    TMP DP  RH WIND       PRES   REMARKS
SIOUX FALLS    CLOUDY    32  22  66 NW17G23   30.20S WCI  21
6HR MIN TEMP:  32; 6HR MAX TEMP:  40;

BROOKINGS      CLOUDY    28  23  81 NW17      30.16F WCI  16
WATERTOWN      CLOUDY    27  22  81 NW21G29   30.15S WCI  13
6HR MIN TEMP:  27; 6HR MAX TEMP:  29; 6HR PCP: TRACE;

HURON          CLOUDY    30  23  75 NW15      30.23F WCI  19
6HR MIN TEMP:  29; 6HR MAX TEMP:  35; 6HR PCP: TRACE;

SISSETON         N/A     29  23  78 NW18      30.17R WCI  16
ABERDEEN       FLURRIES  30  21  69 NW16      30.23S WCI  19
6HR MIN TEMP:  30; 6HR MAX TEMP:  32;

MITCHELL       CLOUDY    32  22  66 NW16      30.24F WCI  21
PIERRE         CLOUDY    30  18  60 NW15      30.26S WCI  19
6HR MIN TEMP:  30; 6HR MAX TEMP:  38;

MOBRIDGE       CLOUDY    30  20  66 N14G24    30.24S WCI  19
RAPID CITY     CLOUDY    30  16  56 N20G29    30.28S WCI  17
6HR MIN TEMP:  29; 6HR MAX TEMP:  38;

$$

  *****  SOME WEATHER IN NEARBY STATES *****

CITY           SKY/WX    TMP DP  RH WIND       PRES   REMARKS
GLASGOW MT     LGT SNOW  26  22  84 N7        30.39S FOG     WCI  18
6HR MIN TEMP:  26; 6HR MAX TEMP:  29; 6HR PCP:  0.04;

GREAT FALLS MT LGT SNOW  26  24  92 NW6       30.38F FOG     WCI  19
6HR MIN TEMP:  26; 6HR MAX TEMP:  33; 6HR PCP:  0.03;

CHEYENNE WY    LGT SNOW  29  18  63 E7G17     30.18S WCI  22
6HR MIN TEMP:  30; 6HR MAX TEMP:  35; 6HR PCP: TRACE;

SCOTTSBLUFF NE CLOUDY    32  15  49 N20G28    30.26R WCI  20
6HR MIN TEMP:  32; 6HR MAX TEMP:  46;

OMAHA NE       MOCLDY    36  25  64 N6        30.25R
6HR MIN TEMP:  36; 6HR MAX TEMP:  52;

DES MOINES IA  FAIR      37  22  54 W5        30.21R
6HR MIN TEMP:  36; 6HR MAX TEMP:  50;

DAVENPORT IA   FAIR      36  25  64 W3        30.20R
6HR MIN TEMP:  35; 6HR MAX TEMP:  52;

CHICAGO IL     FAIR      43  27  53 NW14      30.12R
6HR MIN TEMP:  43; 6HR MAX TEMP:  52;

EAU CLAIRE WI  FLURRIES  32  26  78 W12       30.06S WCI  23
6HR MIN TEMP:  32; 6HR MAX TEMP:  35; 6HR PCP: TRACE;

LA CROSSE WI   CLOUDY    37  27  67 NW12      30.11S
6HR MIN TEMP:  35; 6HR MAX TEMP:  39;

$$

  *****  SOME NATIONAL WEATHER *****

CITY           SKY/WX    TMP DP  RH WIND       PRES   REMARKS
LA GUARDIA NY  FAIR      50  39  66 S8        30.07F
6HR MIN TEMP:  50; 6HR MAX TEMP:  62;

RALEIGH NC     FAIR      60  49  66 SE5       30.08F
6HR MIN TEMP:  60; 6HR MAX TEMP:  68;

ATLANTA GA     FAIR      66  45  46 W6        30.08S
6HR MIN TEMP:  65; 6HR MAX TEMP:  79;

NEW ORLEANS LA FAIR      69  59  70 S12       30.01S
6HR MIN TEMP:  64; 6HR MAX TEMP:  71; 6HR PCP: TRACE;

OKLAHOMA CITY  RAIN      47  45  93 N15       30.16R FOG
6HR MIN TEMP:  48; 6HR MAX TEMP:  63; 6HR PCP:  0.11;

ALBUQUERQUE NM FAIR      54  28  36 E22G35    29.95F
6HR MIN TEMP:  52; 6HR MAX TEMP:  64; 6HR PCP: TRACE;

SALT LAKE CITY MOCLDY    47  26  44 W12G20    29.76R
6HR MIN TEMP:  47; 6HR MAX TEMP:  57; 6HR PCP: TRACE;

LOS ANGELES CA CLOUDY    56  49  77 W8        29.93F
6HR MIN TEMP:  56; 6HR MAX TEMP:  59;

BOISE ID       FAIR      50  15  24 CALM      29.88S
6HR MIN TEMP:  47; 6HR M


USA.gov is the U.S. government's official web portal to all federal, state and local government web resources and services.